• Join FlightAware (Why Join?)
  • Login
  • US Flag 
03:07AM EST


 

Airport Tracker/Info


-or-


 

Live Flight TrackerFlight Track Log ✈ TAM3749 ✈ 12-Jul-2013 ✈ SBEG / MAO - SBGR / GRU

Flight Track Log - Related Links

Times and Time Zones

All times are in EDT time to prevent confusion due to time zone crossing. See the TAM3749 flight status page for this flight to view local times or setup timezone preferences in your user account.

Time Position Orientation Groundspeed Altitude Reporting Facility
EDT Latitude Longitude Course Direction KTS MPH feet Rate Location/Type
04:48PM -3.0390 -60.0310 91° East 161 185 1,100  Level FlightAware
04:49PM -3.0390 -60.0110 90° East 151 174 2,000 1,535 Climbing FlightAware
04:49PM -3.0390 -60.0000 90° East 162 186 2,200 818 Climbing FlightAware
04:49PM -3.0410 -59.9760 95° East 198 228 2,600 857 Climbing FlightAware
04:50PM -3.0410 -59.9560 90° East 228 262 2,900 1,167 Climbing FlightAware
04:50PM -3.0420 -59.9380 93° East 249 287 3,300 2,318 Climbing FlightAware
04:50PM -3.0540 -59.9080 112° Southeast 255 293 4,600 2,850 Climbing FlightAware
04:51PM -3.0650 -59.9000 144° Southeast 259 298 5,200 2,919 Climbing FlightAware
04:51PM -3.0950 -59.8880 158° South 266 306 6,400 2,786 Climbing FlightAware
04:52PM -3.1290 -59.8720 155° Southeast 273 314 7,800 2,700 Climbing FlightAware
04:52PM -3.1640 -59.8570 157° South 280 322 9,100 2,417 Climbing FlightAware
04:53PM -3.2160 -59.8350 157° South 303 349 10,700 2,122 Climbing FlightAware
04:53PM -3.2710 -59.8110 156° South 329 379 12,000 1,976 Climbing FlightAware
04:54PM -3.3310 -59.7840 156° South 349 402 13,400 2,154 Climbing FlightAware
04:55PM -3.3860 -59.7610 157° South 359 413 14,800 2,368 Climbing FlightAware
04:55PM -3.4480 -59.7330 156° South 364 419 16,400 2,143 Climbing FlightAware
04:56PM -3.5130 -59.6960 150° Southeast 374 430 17,800 1,974 Climbing FlightAware
04:57PM -3.5620 -59.6680 150° Southeast 382 440 18,900 1,923 Climbing FlightAware
04:57PM -3.6350 -59.6270 151° Southeast 393 452 20,300 1,744 Climbing FlightAware
04:58PM -3.6980 -59.5910 150° Southeast 404 465 21,400 1,875 Climbing FlightAware
04:59PM -3.7640 -59.5540 151° Southeast 407 468 22,800 1,786 Climbing FlightAware
04:59PM -3.8380 -59.5120 150° Southeast 419 482 23,900 1,432 Climbing FlightAware
05:00PM -3.9120 -59.4700 150° Southeast 430 495 24,900 1,778 Climbing FlightAware
05:01PM -3.9750 -59.4350 151° Southeast 422 486 26,300 1,535 Climbing FlightAware
05:02PM -4.0510 -59.3910 150° Southeast 416 479 27,100 495 Climbing FlightAware
05:02PM -4.1190 -59.3520 150° Southeast 416 479 27,100  Level FlightAware
05:03PM -4.1700 -59.3220 150° Southeast 416 479 27,100  Level FlightAware
05:04PM -4.2220 -59.2920 150° Southeast 416 479 27,100  Level FlightAware
05:04PM -4.2730 -59.2620 150° Southeast 416 479 27,100  Level FlightAware
05:05PM -4.3430 -59.2220 150° Southeast 416 479 27,100 106 Level FlightAware
05:08PM -4.5720 -59.0805 148° Southeast  Level Estimated
05:09PM -4.6667 -59.0219 148° Southeast  Level Estimated
05:10PM -4.7614 -58.9633 148° Southeast  Level Estimated
05:11PM -4.8561 -58.9047 148° Southeast  Level Estimated
05:12PM -4.9509 -58.8461 148° Southeast  Level Estimated
05:13PM -5.0456 -58.7874 148° Southeast  Level Estimated
05:14PM -5.1403 -58.7287 148° Southeast  Level Estimated
05:15PM -5.2350 -58.6701 148° Southeast  Level Estimated
05:16PM -5.3297 -58.6114 148° Southeast  Level Estimated
05:17PM -5.4244 -58.5526 148° Southeast  Level Estimated
05:18PM -5.5191 -58.4939 148° Southeast  Level Estimated
05:19PM -5.6137 -58.4351 148° Southeast  Level Estimated
05:20PM -5.7084 -58.3764 148° Southeast  Level Estimated
05:21PM -5.8031 -58.3176 148° Southeast  Level Estimated
05:22PM -5.8977 -58.2588 148° Southeast  Level Estimated
05:23PM -5.9924 -58.1999 148° Southeast  Level Estimated
05:24PM -6.0870 -58.1411 148° Southeast  Level Estimated
05:25PM -6.1817 -58.0822 148° Southeast  Level Estimated
05:26PM -6.2763 -58.0233 148° Southeast  Level Estimated
05:27PM -6.3710 -57.9644 148° Southeast  Level Estimated
05:28PM -6.4656 -57.9054 148° Southeast  Level Estimated
05:29PM -6.5602 -57.8465 148° Southeast  Level Estimated
05:30PM -6.6548 -57.7875 148° Southeast  Level Estimated
05:31PM -6.7494 -57.7285 148° Southeast  Level Estimated
05:32PM -6.8440 -57.6694 148° Southeast  Level Estimated
05:33PM -6.9386 -57.6104 148° Southeast  Level Estimated
05:34PM -7.0332 -57.5513 148° Southeast  Level Estimated
05:35PM -7.1277 -57.4922 148° Southeast  Level Estimated
05:36PM -7.2223 -57.4331 148° Southeast  Level Estimated
05:37PM -7.3169 -57.3739 148° Southeast  Level Estimated
05:38PM -7.4114 -57.3148 148° Southeast  Level Estimated
05:39PM -7.5060 -57.2556 148° Southeast  Level Estimated
05:40PM -7.6005 -57.1963 148° Southeast  Level Estimated
05:41PM -7.6950 -57.1371 148° Southeast  Level Estimated
05:42PM -7.7896 -57.0778 148° Southeast  Level Estimated
05:43PM -7.8841 -57.0185 148° Southeast  Level Estimated
05:44PM -7.9786 -56.9591 148° Southeast  Level Estimated
05:45PM -8.0731 -56.8998 148° Southeast  Level Estimated
05:46PM -8.1676 -56.8404 148° Southeast  Level Estimated
05:47PM -8.2620 -56.7810 148° Southeast  Level Estimated
05:48PM -8.3565 -56.7215 148° Southeast  Level Estimated
05:49PM -8.4510 -56.6621 148° Southeast  Level Estimated
05:50PM -8.5454 -56.6026 148° Southeast  Level Estimated
05:51PM -8.6398 -56.5430 148° Southeast  Level Estimated
05:52PM -8.7343 -56.4835 148° Southeast  Level Estimated
05:53PM -8.8287 -56.4239 148° Southeast  Level Estimated
05:54PM -8.9231 -56.3643 148° Southeast  Level Estimated
05:55PM -9.0175 -56.3046 148° Southeast  Level Estimated
05:56PM -9.1119 -56.2449 148° Southeast  Level Estimated
05:57PM -9.2063 -56.1852 148° Southeast  Level Estimated
05:58PM -9.3006 -56.1255 148° Southeast  Level Estimated
05:59PM -9.3950 -56.0657 148° Southeast  Level Estimated
06:00PM -9.4894 -56.0059 148° Southeast  Level Estimated
06:01PM -9.5796 -55.9486 148° Southeast  Level Estimated
06:02PM -9.6698 -55.8914 148° Southeast  Level Estimated
06:03PM -9.7600 -55.8341 148° Southeast  Level Estimated
06:04PM -9.8501 -55.7768 148° Southeast  Level Estimated
06:05PM -9.9403 -55.7195 148° Southeast  Level Estimated
06:06PM -10.0305 -55.6621 148° Southeast  Level Estimated
06:07PM -10.1206 -55.6047 148° Southeast  Level Estimated
06:08PM -10.2108 -55.5472 148° Southeast  Level Estimated
06:09PM -10.3009 -55.4898 148° Southeast  Level Estimated
06:10PM -10.3910 -55.4323 148° Southeast  Level Estimated
06:11PM -10.4811 -55.3747 148° Southeast  Level Estimated
06:12PM -10.5712 -55.3171 148° Southeast  Level Estimated
06:13PM -10.6613 -55.2595 148° Southeast  Level Estimated
06:14PM -10.7514 -55.2019 148° Southeast  Level Estimated
06:15PM -10.8415 -55.1442 148° Southeast  Level Estimated
06:16PM -10.9315 -55.0865 148° Southeast  Level Estimated
06:17PM -11.0216 -55.0288 148° Southeast  Level Estimated
06:18PM -11.1116 -54.9710 148° Southeast  Level Estimated
06:19PM -11.2016 -54.9132 148° Southeast  Level Estimated
06:20PM -11.2916 -54.8553 148° Southeast  Level Estimated
06:21PM -11.3816 -54.7974 148° Southeast  Level Estimated
06:22PM -11.4716 -54.7395 148° Southeast  Level Estimated
06:23PM -11.5616 -54.6815 148° Southeast  Level Estimated
06:24PM -11.6516 -54.6236 148° Southeast  Level Estimated
06:25PM -11.7415 -54.5655 148° Southeast  Level Estimated
06:26PM -11.8315 -54.5074 148° Southeast  Level Estimated
06:27PM -11.9214 -54.4493 148° Southeast  Level Estimated
06:28PM -12.0113 -54.3912 148° Southeast  Level Estimated
06:29PM -12.1012 -54.3330 148° Southeast  Level Estimated
06:30PM -12.1911 -54.2748 148° Southeast  Level Estimated
06:31PM -12.2810 -54.2165 148° Southeast  Level Estimated
06:32PM -12.3709 -54.1582 148° Southeast  Level Estimated
06:33PM -12.4607 -54.0998 148° Southeast  Level Estimated
06:34PM -12.5506 -54.0414 148° Southeast  Level Estimated
06:35PM -12.6404 -53.9830 148° Southeast  Level Estimated
06:36PM -12.7302 -53.9245 148° Southeast  Level Estimated
06:37PM -12.8201 -53.8660 148° Southeast  Level Estimated
06:38PM -12.9098 -53.8075 148° Southeast  Level Estimated
06:39PM -12.9996 -53.7489 148° Southeast  Level Estimated
06:40PM -13.0894 -53.6902 148° Southeast  Level Estimated
06:41PM -13.1791 -53.6316 148° Southeast  Level Estimated
06:42PM -13.2689 -53.5728 148° Southeast  Level Estimated
06:43PM -13.3586 -53.5141 147° Southeast  Level Estimated
06:44PM -13.4483 -53.4553 147° Southeast  Level Estimated
06:45PM -13.5380 -53.3964 147° Southeast  Level Estimated
06:46PM -13.6277 -53.3375 147° Southeast  Level Estimated
06:47PM -13.7174 -53.2786 147° Southeast  Level Estimated
06:48PM -13.8071 -53.2196 147° Southeast  Level Estimated
06:49PM -13.8967 -53.1605 147° Southeast  Level Estimated
06:50PM -13.9863 -53.1015 147° Southeast  Level Estimated
06:51PM -14.0760 -53.0423 147° Southeast  Level Estimated
06:52PM -14.1656 -52.9832 147° Southeast  Level Estimated
06:53PM -14.2551 -52.9239 147° Southeast  Level Estimated
06:54PM -14.3447 -52.8647 147° Southeast  Level Estimated
06:55PM -14.4343 -52.8054 147° Southeast  Level Estimated
06:56PM -14.5238 -52.7460 147° Southeast  Level Estimated
06:57PM -14.6133 -52.6866 147° Southeast  Level Estimated
06:58PM -14.7029 -52.6271 147° Southeast  Level Estimated
06:59PM -14.7924 -52.5676 147° Southeast  Level Estimated
07:00PM -14.8818 -52.5081 147° Southeast  Level Estimated
07:01PM -14.9713 -52.4484 147° Southeast  Level Estimated
07:02PM -15.0608 -52.3888 147° Southeast  Level Estimated
07:03PM -15.1502 -52.3291 147° Southeast  Level Estimated
07:04PM -15.2396 -52.2693 147° Southeast  Level Estimated
07:05PM -15.3290 -52.2095 147° Southeast  Level Estimated
07:06PM -15.4184 -52.1497 147° Southeast  Level Estimated
07:07PM -15.5078 -52.0897 147° Southeast  Level Estimated
07:08PM -15.5971 -52.0298 147° Southeast  Level Estimated
07:09PM -15.6865 -51.9698 147° Southeast  Level Estimated
07:10PM -15.7758 -51.9097 147° Southeast  Level Estimated
07:11PM -15.8651 -51.8496 147° Southeast  Level Estimated
07:12PM -15.9544 -51.7894 147° Southeast  Level Estimated
07:13PM -16.0437 -51.7292 147° Southeast  Level Estimated
07:14PM -16.1330 -51.6689 147° Southeast  Level Estimated
07:15PM -16.2222 -51.6086 147° Southeast  Level Estimated
07:15PM -18.0970 -50.3690 147° Southeast 473 544 41,000  Level FlightAware
07:16PM -16.3114 -51.5482 147° Southeast  Level Estimated
07:16PM -18.1830 -50.3030 144° Southeast 472 543 41,000  Level FlightAware
07:17PM -18.2350 -50.2640 145° Southeast 472 543 41,000  Level FlightAware
07:17PM -18.3290 -50.1930 144° Southeast 471 542 41,000  Level FlightAware
07:18PM -18.3880 -50.1460 143° Southeast 471 542 41,000  Level FlightAware
07:19PM -18.4710 -50.0860 146° Southeast 472 543 41,000  Level FlightAware
07:19PM -18.5310 -50.0400 144° Southeast 472 543 41,000  Level FlightAware
07:20PM -18.6300 -49.9640 144° Southeast 472 543 41,000  Level FlightAware
07:21PM -18.7020 -49.9090 144° Southeast 472 543 41,000  Level FlightAware
07:22PM -18.7560 -49.8680 144° Southeast 472 543 41,000  Level FlightAware
07:22PM -18.8700 -49.7820 144° Southeast 471 542 41,000  Level FlightAware
07:23PM -18.9360 -49.7310 144° Southeast 471 542 41,000  Level FlightAware
07:24PM -19.0240 -49.6620 143° Southeast 472 543 41,000  Level FlightAware
07:25PM -19.1010 -49.6060 146° Southeast 472 543 41,000  Level FlightAware
07:25PM -19.1750 -49.5480 143° Southeast 473 544 41,000  Level FlightAware
07:26PM -19.2660 -49.4790 144° Southeast 475 547 41,000  Level FlightAware
07:27PM -19.3370 -49.4240 144° Southeast 475 547 41,000  Level FlightAware
07:28PM -19.4110 -49.3670 144° Southeast 476 548 41,000  Level FlightAware
07:28PM -19.4930 -49.3040 144° Southeast 475 547 41,000  Level FlightAware
07:29PM -19.5640 -49.2500 144° Southeast 474 545 41,000  Level FlightAware
07:30PM -19.6340 -49.1950 144° Southeast 474 545 41,000  Level FlightAware
07:30PM -19.7120 -49.1350 144° Southeast 475 547 41,000  Level FlightAware
07:31PM -19.7770 -49.0850 144° Southeast 476 548 41,000  Level FlightAware
07:32PM -19.8550 -49.0250 144° Southeast 476 548 41,000  Level FlightAware
07:32PM -19.9260 -48.9690 143° Southeast 477 549 41,000  Level FlightAware
07:33PM -19.9910 -48.9190 144° Southeast 477 549 41,000  Level FlightAware
07:34PM -20.0610 -48.8640 144° Southeast 479 551 41,000  Level FlightAware
07:34PM -20.1420 -48.8010 144° Southeast 479 551 41,000  Level FlightAware
07:35PM -20.2150 -48.7520 148° Southeast 478 550 41,000  Level FlightAware
07:36PM -20.2950 -48.6980 148° Southeast 476 548 41,000  Level FlightAware
07:36PM -20.3510 -48.6600 148° Southeast 476 548 41,000  Level FlightAware
07:37PM -20.4270 -48.6070 147° Southeast 477 549 41,000  Level FlightAware
07:38PM -20.5000 -48.5570 147° Southeast 477 549 41,000  Level FlightAware
07:38PM -20.5590 -48.5160 147° Southeast 478 550 41,000  Level FlightAware
07:39PM -20.6470 -48.4550 147° Southeast 479 551 41,000  Level FlightAware
07:40PM -20.7220 -48.4030 147° Southeast 478 550 41,000  Level FlightAware
07:40PM -20.8010 -48.3490 147° Southeast 477 549 41,000  Level FlightAware
07:41PM -20.8660 -48.3030 147° Southeast 477 549 41,000  Level FlightAware
07:42PM -20.9590 -48.2380 147° Southeast 476 548 41,000  Level FlightAware
07:42PM -21.0330 -48.1870 147° Southeast 479 551 41,000  Level FlightAware
07:43PM -21.1120 -48.1320 147° Southeast 479 551 41,000  Level FlightAware
07:44PM -21.1820 -48.0830 147° Southeast 480 552 41,000  Level FlightAware
07:44PM -21.2680 -48.0230 147° Southeast 481 554 41,000  Level FlightAware
07:45PM -21.3450 -47.9690 147° Southeast 483 556 41,000  Level FlightAware
07:46PM -21.4280 -47.9110 147° Southeast 483 556 41,000  Level FlightAware
07:46PM -21.4920 -47.8660 147° Southeast 484 557 41,000  Level FlightAware
07:47PM -21.5710 -47.8100 147° Southeast 483 556 41,000 -361 Level FlightAware
07:48PM -21.6490 -47.7560 147° Southeast 475 547 40,500 -1,171 Descending FlightAware
07:49PM -21.7220 -47.7040 147° Southeast 479 551 39,400 -2,071 Descending FlightAware
07:49PM -21.8050 -47.6460 147° Southeast 481 554 37,600 -2,629 Descending FlightAware
07:50PM -21.8880 -47.5870 147° Southeast 487 560 35,500 -2,857 Descending FlightAware
07:51PM -21.9620 -47.5350 147° Southeast 488 562 33,600 -2,714 Descending FlightAware
07:51PM -22.0460 -47.4750 146° Southeast 482 555 31,700 -2,329 Descending FlightAware
07:52PM -22.1200 -47.4220 146° Southeast 472 543 30,300 -2,143 Descending FlightAware
07:53PM -22.2000 -47.3660 147° Southeast 461 531 28,700 -2,241 Descending FlightAware
07:53PM -22.2700 -47.3160 147° Southeast 450 518 27,200 -2,169 Descending FlightAware
07:54PM -22.3450 -47.2630 147° Southeast 439 505 25,700 -2,093 Descending FlightAware
07:55PM -22.4160 -47.2120 146° Southeast 429 494 24,200 -2,122 Descending FlightAware
07:56PM -22.4820 -47.1650 147° Southeast 421 484 22,800 -2,053 Descending FlightAware
07:56PM -22.5390 -47.1240 146° Southeast 414 476 21,600 -1,975 Descending FlightAware
07:57PM -22.6100 -47.0830 152° Southeast 407 468 20,200 -2,036 Descending FlightAware
07:58PM -22.7290 -47.0340 159° South 395 455 17,800 -2,037 Descending FlightAware
07:59PM -22.8000 -47.0040 159° South 389 448 16,500 -1,953 Descending FlightAware
07:59PM -22.8760 -46.9720 159° South 385 443 15,000 -1,953 Descending FlightAware
08:00PM -22.9430 -46.9440 159° South 384 442 13,700 -1,902 Descending FlightAware
08:01PM -23.0120 -46.9150 159° South 376 433 12,400 -1,395 Descending FlightAware
08:02PM -23.0820 -46.8850 158° South 348 400 11,700 -929 Descending FlightAware
08:02PM -23.1380 -46.8620 159° South 309 356 11,100 -1,588 Descending FlightAware
08:03PM -23.1750 -46.8460 158° South 303 349 9,900 -2,464 Descending FlightAware
08:03PM -23.2140 -46.8300 159° South 323 372 8,800 -1,909 Descending FlightAware
08:03PM -23.2350 -46.8200 156° South 317 365 8,500 -1,067 Descending FlightAware
08:04PM -23.2740 -46.8040 159° South 313 360 8,000 -1,179 Descending FlightAware
08:04PM -23.3110 -46.7890 160° South 309 356 7,400 -873 Descending FlightAware
08:05PM -23.3480 -46.7790 166° South 290 334 7,200 -421 Descending FlightAware
08:05PM -23.3860 -46.7710 169° South 273 314 7,000 -293 Descending FlightAware
08:06PM -23.4010 -46.7680 170° South 264 304 7,000  Level FlightAware
08:06PM -23.4320 -46.7610 168° South 252 290 7,000  Level FlightAware
08:06PM -23.4460 -46.7580 169° South 253 291 7,000 -545 Level FlightAware
08:07PM -23.4820 -46.7500 168° South 233 268 6,600 -600 Descending FlightAware
08:07PM -23.5110 -46.7430 168° South 212 244 6,400 -450 Descending FlightAware
08:07PM -23.5210 -46.7390 160° South 207 238 6,300 -500 Descending FlightAware
08:08PM -23.5290 -46.7290 131° Southeast 202 232 6,200 -300 Descending FlightAware
08:08PM -23.5310 -46.7210 105° East 198 228 6,200 -500 Level FlightAware
08:08PM -23.5200 -46.6980 62° Northeast 187 215 5,900 -643 Descending FlightAware
08:09PM -23.5040 -46.6800 46° Northeast 186 214 5,600 -643 Descending FlightAware
08:09PM -23.4870 -46.6610 46° Northeast 189 217 5,300 -818 Descending FlightAware
08:09PM -23.4820 -46.6460 70° East 192 221 5,000 -833 Descending FlightAware
08:10PM -23.4770 -46.6280 73° East 187 215 4,800 -857 Descending FlightAware
08:10PM -23.4700 -46.6030 73° East 178 205 4,300 -1,000 Descending FlightAware
08:11PM -23.4660 -46.5870 75° East 167 192 4,000 -840 Descending FlightAware
08:11PM -23.4600 -46.5670 72° East 157 181 3,600 -814 Descending FlightAware
08:11PM -23.4550 -46.5460 75° East 144 166 3,200 -724 Descending FlightAware
08:12PM -23.4490 -46.5250 73° East 141 162 2,900 -655 Descending FlightAware
08:12PM -23.4450 -46.5080 76° East 139 160 2,600 -612 Descending FlightAware
08:13PM -23.4410 -46.4960 70° East 142 163 2,400 -500 Descending FlightAware
08:13PM -23.4340 -46.4690 74° East 80 92 -4,114 Descending FlightAware
08:14PM -23.4320 -46.4610 75° East 80 92  Level FlightAware
08:15PM -23.4280 -46.4620 347° North 9 10  Level FlightAware
08:15PM -23.4270 -46.4620 360° North 11 13  Level FlightAware
08:16PM -23.4270 -46.4640 270° West 13 15  Level FlightAware
08:17PM -23.4280 -46.4660 241° Southwest 12 14  Level FlightAware
08:17PM -23.4280 -46.4680 270° West 12 14  Level FlightAware
08:17PM -23.4290 -46.4690 223° Southwest 14 16  Level FlightAware
08:18PM -23.4290 -46.4710 270° West 16 18  Level FlightAware
08:18PM -23.4300 -46.4730 241° Southwest 16 18  Level FlightAware
08:19PM -23.4300 -46.4750 270° West 14 16  Level FlightAware
08:19PM -23.4310 -46.4770 241° Southwest 14 16  Level FlightAware
08:20PM -23.4310 -46.4780 270° West 11 13  Level FlightAware
08:22PM -23.4321 -46.4695 98° East  Level Estimated
08:22PM -23.4320 -46.4800 98° East 5 6  Level FlightAware
08:23PM -23.4320 -46.4810 270° West 7 8  Level FlightAware
08:23PM -23.4300 -46.4810 360° North 14 16  Level FlightAware
08:24PM -23.4280 -46.4820 335° Northwest 8 9  Level FlightAware
08:27PM -23.4321 -46.4695 110° East  Level Estimated
08:28PM -23.4321 -46.4695 350° North  Level Estimated
08:29PM -23.4321 -46.4695 350° North  Level Estimated
08:30PM -23.4321 -46.4695 350° North  Level Estimated
08:31PM -23.4321 -46.4695 350° North  Level Estimated
08:32PM -23.4321 -46.4695 350° North  Level Estimated
08:33PM -23.4321 -46.4695 350° North  Level Estimated
08:34PM -23.4321 -46.4695 350° North  Level Estimated
08:35PM -23.4321 -46.4695 350° North  Level Estimated
08:36PM -23.4321 -46.4695 350° North  Level Estimated
08:37PM -23.4321 -46.4695 350° North  Level Estimated
08:38PM -23.4321 -46.4695 350° North  Level Estimated
08:39PM -23.4321 -46.4695 350° North  Level Estimated
08:40PM -23.4321 -46.4695 350° North  Level Estimated
08:41PM -23.4321 -46.4695 350° North  Level Estimated
08:42PM -23.4321 -46.4695 350° North  Level Estimated
08:43PM -23.4321 -46.4695 350° North  Level Estimated
08:44PM -23.4321 -46.4695 350° North  Level Estimated
08:45PM -23.4321 -46.4695 350° North  Level Estimated
08:46PM -23.4321 -46.4695 350° North  Level Estimated
08:47PM -23.4321 -46.4695 350° North  Level Estimated
08:48PM -23.4321 -46.4695 350° North  Level Estimated
08:49PM -23.4321 -46.4695 350° North  Level Estimated
08:50PM -23.4321 -46.4695 350° North  Level Estimated
08:51PM -23.4321 -46.4695 350° North  Level Estimated
08:52PM -23.4321 -46.4695 350° North  Level Estimated